カタログに戻る

BREEZE-M DEB

TANK

運用中HEO
NORAD 29649·DEBRIS·🇷🇺 Russia

打ち上げ Dec 11, 2006 から Baikonur Cosmodrome

Loading…

次のパス (今後24時間)

TLE

最新Source: Space-Track

元期: Sep 14, 2026, 10:54 UTC

1 29649U 06056B   26257.45435585  .00002671  00000-0  65354-3 0  9990
2 29649  49.5038 227.7288 5232631 154.7971 244.3591  5.21698049359158

AllMySatでBREEZE-M DEBをリアルタイム追跡

Download on the App Store